| time (UTC) | temp F | wind direction | speed MPH | gust MPH | rain 1hr in | rain 24hr in | rain mn in | humidity % | barometer mb |
| 20260905151534 | 80 | 336 | 1.0 | 5.0 | 0.01 | 0.03 | 0.03 | 87 | 1013.9 |
| 20260905150031 | 79 | 264 | 0.0 | 4.0 | 0.01 | 0.03 | 0.03 | 90 | 1013.9 |
| 20260905144529 | 77 | 88 | 0.0 | 4.0 | 0.00 | 0.02 | 0.02 | 93 | 1013.7 |
| 20260905143027 | 76 | 319 | 0.0 | 4.0 | 0.00 | 0.02 | 0.02 | 94 | 1013.6 |
| 20260905141532 | 76 | 306 | 0.0 | 4.0 | 0.00 | 0.02 | 0.02 | 94 | 1013.7 |
| 20260905140025 | 77 | 298 | 0.0 | 3.0 | 0.00 | 0.02 | 0.02 | 93 | 1013.4 |
| 20260905134524 | 78 | 103 | 0.0 | 6.0 | 0.00 | 0.02 | 0.02 | 94 | 1013.3 |
| 20260905133020 | 77 | 76 | 1.0 | 4.0 | 0.00 | 0.02 | 0.02 | 97 | 1013.2 |
| 20260905131517 | 76 | 336 | 0.0 | 4.0 | 0.00 | 0.02 | 0.02 | 99 | 1013.6 |
| 20260905130013 | 75 | 33 | 0.0 | 2.0 | 0.00 | 0.02 | 0.02 | 100 | 1012.9 |
| 20260905124510 | 75 | 101 | 0.0 | 1.0 | 0.00 | 0.02 | 0.02 | 100 | 1013.0 |
| 20260905123016 | 75 | 101 | 0.0 | 1.0 | 0.00 | 0.02 | 0.02 | 100 | 1012.6 |
| 20260905121505 | 75 | 100 | 0.0 | 0.0 | 0.00 | 0.02 | 0.02 | 100 | 1012.6 |
| 20260905120002 | 75 | 100 | 0.0 | 0.0 | 0.00 | 0.02 | 0.02 | 100 | 1012.5 |
| 20260905114601 | 74 | 100 | 0.0 | 0.0 | 0.00 | 0.02 | 0.02 | 100 | 1012.2 |
| 20260905113058 | 74 | 100 | 0.0 | 0.0 | 0.00 | 0.02 | 0.02 | 99 | 1012.1 |
| 20260905111607 | 75 | 100 | 0.0 | 0.0 | 0.00 | 0.02 | 0.02 | 99 | 1011.9 |
| 20260905110059 | 75 | 100 | 0.0 | 0.0 | 0.00 | 0.02 | 0.02 | 99 | 1011.6 |
| 20260905104612 | 75 | 100 | 0.0 | 0.0 | 0.00 | 0.02 | 0.02 | 99 | 1011.7 |
| 20260905103055 | 75 | 100 | 0.0 | 0.0 | 0.00 | 0.02 | 0.02 | 99 | 1011.9 |
| 20260905101559 | 75 | 100 | 0.0 | 0.0 | 0.00 | 0.02 | 0.02 | 99 | 1011.8 |
| 20260905100058 | 75 | 100 | 0.0 | 0.0 | 0.02 | 0.02 | 0.02 | 99 | 1011.8 |
| 20260905094552 | 76 | 100 | 0.0 | 0.0 | 0.02 | 0.02 | 0.02 | 98 | 1011.8 |
| 20260905093051 | 76 | 100 | 0.0 | 0.0 | 0.02 | 0.02 | 0.02 | 98 | 1011.8 |
| 20260905091607 | 76 | 100 | 0.0 | 1.0 | 0.02 | 0.02 | 0.02 | 98 | 1011.8 |
| 20260905090051 | 76 | 100 | 0.0 | 0.0 | 0.00 | 0.00 | 0.00 | 98 | 1011.7 |
| 20260905084607 | 76 | 100 | 0.0 | 0.0 | 0.00 | 0.00 | 0.00 | 98 | 1011.9 |
| 20260905083047 | 76 | 100 | 0.0 | 0.0 | 0.00 | 0.00 | 0.00 | 97 | 1011.8 |
| 20260905081546 | 76 | 100 | 0.0 | 0.0 | 0.00 | 0.00 | 0.00 | 97 | 1011.9 |
| 20260905080044 | 77 | 101 | 0.0 | 0.0 | 0.00 | 0.00 | 0.00 | 97 | 1011.8 |
| 20260905074547 | 77 | 100 | 0.0 | 1.0 | 0.00 | 0.00 | 0.00 | 97 | 1011.9 |
| 20260905073042 | 77 | 101 | 0.0 | 2.0 | 0.00 | 0.00 | 0.00 | 96 | 1011.9 |
| 20260905071545 | 77 | 100 | 0.0 | 3.0 | 0.00 | 0.00 | 0.00 | 96 | 1011.8 |
| 20260905064538 | 78 | 132 | 0.0 | 1.0 | 0.00 | 0.00 | 0.00 | 96 | 1011.9 |
| 20260905063037 | 78 | 133 | 0.0 | 0.0 | 0.00 | 0.00 | 0.00 | 95 | 1012.0 |
| 20260905061536 | 78 | 132 | 0.0 | 0.0 | 0.00 | 0.00 | 0.00 | 95 | 1012.1 |
| 20260905060034 | 79 | 132 | 0.0 | 0.0 | 0.00 | 0.00 | 0.00 | 94 | 1012.2 |
| 20260905054545 | 79 | 133 | 0.0 | 0.0 | 0.00 | 0.00 | 0.00 | 94 | 1012.0 |
| 20260905053040 | 79 | 132 | 0.0 | 0.0 | 0.00 | 0.00 | 0.00 | 93 | 1012.1 |
| 20260905051538 | 79 | 133 | 0.0 | 0.0 | 0.00 | 0.00 | 0.00 | 93 | 1011.9 |
| 20260905050026 | 80 | 132 | 0.0 | 0.0 | 0.00 | 0.00 | 0.00 | 93 | 1012.0 |
| 20260905044526 | 80 | 132 | 0.0 | 0.0 | 0.00 | 0.00 | 0.00 | 93 | 1011.9 |
| 20260905043028 | 80 | 132 | 0.0 | 0.0 | 0.00 | 0.00 | 0.00 | 92 | 1011.9 |
| 20260905041525 | 80 | 132 | 0.0 | 0.0 | 0.00 | 0.00 | 0.00 | 92 | 1011.9 |
| 20260905040024 | 80 | 132 | 0.0 | 0.0 | 0.00 | 0.00 | 0.00 | 92 | 1012.1 |
| 20260905034532 | 80 | 132 | 0.0 | 0.0 | 0.00 | 0.00 | 0.00 | 92 | 1012.2 |
| 20260905033026 | 80 | 132 | 0.0 | 0.0 | 0.00 | 0.00 | 0.00 | 92 | 1012.6 |
| 20260905031524 | 81 | 132 | 0.0 | 0.0 | 0.00 | 0.00 | 0.00 | 91 | 1012.7 |
| 20260905030029 | 81 | 132 | 0.0 | 0.0 | 0.00 | 0.00 | 0.00 | 91 | 1012.8 |
| 20260905024523 | 81 | 132 | 0.0 | 0.0 | 0.00 | 0.00 | 0.00 | 90 | 1012.6 |
| 20260905023029 | 82 | 132 | 0.0 | 0.0 | 0.00 | 0.00 | 0.00 | 89 | 1012.5 |
| 20260905021522 | 82 | 133 | 0.0 | 0.0 | 0.00 | 0.00 | 0.00 | 89 | 1012.5 |
| 20260905020025 | 82 | 132 | 0.0 | 0.0 | 0.00 | 0.00 | 0.00 | 88 | 1012.2 |
| 20260905014520 | 83 | 132 | 0.0 | 0.0 | 0.00 | 0.00 | 0.00 | 87 | 1012.0 |
| 20260905013023 | 83 | 132 | 0.0 | 0.0 | 0.00 | 0.00 | 0.00 | 86 | 1011.8 |
| 20260905011520 | 84 | 132 | 0.0 | 0.0 | 0.00 | 0.00 | 0.00 | 84 | 1011.8 |
| 20260905010018 | 85 | 132 | 0.0 | 0.0 | 0.00 | 0.00 | 0.00 | 82 | 1011.4 |
| 20260905004518 | 86 | 132 | 0.0 | 0.0 | 0.00 | 0.00 | 0.00 | 81 | 1011.3 |
| 20260905003018 | 87 | 132 | 0.0 | 0.0 | 0.00 | 0.00 | 0.00 | 79 | 1011.3 |
| 20260905001518 | 87 | 133 | 0.0 | 2.0 | 0.00 | 0.00 | 0.00 | 78 | 1011.1 |
| 20260905000014 | 88 | 132 | 0.0 | 0.0 | 0.00 | 0.00 | 0.00 | 77 | 1011.4 |
| 20260904234523 | 89 | 132 | 0.0 | 2.0 | 0.00 | 0.00 | 0.00 | 76 | 1011.2 |
| 20260904233014 | 89 | 132 | 0.0 | 0.0 | 0.00 | 0.00 | 0.00 | 75 | 1011.3 |
| 20260904231514 | 89 | 132 | 0.0 | 2.0 | 0.00 | 0.00 | 0.00 | 74 | 1011.4 |
| 20260904230015 | 90 | 136 | 0.0 | 2.0 | 0.00 | 0.00 | 0.00 | 74 | 1011.6 |
| 20260904224513 | 90 | 129 | 1.0 | 3.0 | 0.00 | 0.00 | 0.00 | 73 | 1011.6 |
| 20260904223012 | 91 | 238 | 0.0 | 4.0 | 0.00 | 0.00 | 0.00 | 74 | 1011.5 |
| 20260904221511 | 91 | 153 | 0.0 | 6.0 | 0.00 | 0.00 | 0.00 | 73 | 1011.3 |
| 20260904220011 | 91 | 107 | 0.0 | 2.0 | 0.00 | 0.00 | 0.00 | 73 | 1011.6 |
| 20260904214510 | 90 | 107 | 0.0 | 4.0 | 0.00 | 0.00 | 0.00 | 73 | 1011.3 |
| 20260904213009 | 91 | 150 | 0.0 | 7.0 | 0.00 | 0.00 | 0.00 | 72 | 1011.2 |
| 20260904211508 | 91 | 153 | 2.0 | 9.0 | 0.00 | 0.00 | 0.00 | 71 | 1011.4 |
| 20260904210007 | 91 | 167 | 2.0 | 8.0 | 0.00 | 0.00 | 0.00 | 69 | 1011.2 |
| 20260904204502 | 92 | 173 | 2.0 | 6.0 | 0.00 | 0.00 | 0.00 | 69 | 1011.7 |
| 20260904203100 | 91 | 169 | 1.0 | 7.0 | 0.00 | 0.00 | 0.00 | 70 | 1011.8 |
| 20260904203001 | 91 | 171 | 1.0 | 7.0 | 0.00 | 0.00 | 0.00 | 69 | 1011.8 |
| 20260904201557 | 91 | 170 | 2.0 | 8.0 | 0.00 | 0.00 | 0.00 | 71 | 1012.0 |
| 20260904200054 | 90 | 144 | 3.0 | 6.0 | 0.00 | 0.00 | 0.00 | 70 | 1012.4 |
| 20260904194550 | 89 | 153 | 2.0 | 8.0 | 0.00 | 0.00 | 0.00 | 71 | 1012.5 |
| 20260904193052 | 89 | 110 | 3.0 | 8.0 | 0.00 | 0.00 | 0.00 | 72 | 1012.8 |
| 20260904191549 | 88 | 122 | 4.0 | 9.0 | 0.00 | 0.00 | 0.00 | 72 | 1013.0 |
| 20260904190051 | 88 | 165 | 5.0 | 9.0 | 0.00 | 0.00 | 0.00 | 71 | 1013.1 |
| 20260904184547 | 87 | 123 | 4.0 | 14.0 | 0.00 | 0.00 | 0.00 | 71 | 1013.4 |
| 20260904183046 | 87 | 180 | 5.0 | 11.0 | 0.00 | 0.00 | 0.00 | 72 | 1013.5 |
| 20260904181546 | 86 | 144 | 4.0 | 15.0 | 0.00 | 0.00 | 0.00 | 71 | 1013.8 |
| 20260904180044 | 86 | 100 | 3.0 | 12.0 | 0.00 | 0.00 | 0.00 | 71 | 1014.0 |
| 20260904174542 | 85 | 86 | 4.0 | 12.0 | 0.00 | 0.00 | 0.00 | 72 | 1014.4 |
| 20260904173041 | 85 | 80 | 4.0 | 9.0 | 0.00 | 0.00 | 0.00 | 72 | 1014.9 |
| 20260904171550 | 85 | 88 | 3.0 | 11.0 | 0.00 | 0.00 | 0.00 | 75 | 1014.9 |
| 20260904170045 | 86 | 304 | 2.0 | 9.0 | 0.00 | 0.00 | 0.00 | 76 | 1015.1 |
| 20260904164540 | 87 | 77 | 3.0 | 9.0 | 0.00 | 0.00 | 0.00 | 77 | 1014.9 |
| 20260904163041 | 85 | 92 | 2.0 | 9.0 | 0.00 | 0.00 | 0.00 | 78 | 1015.0 |
| 20260904161537 | 86 | 82 | 0.0 | 5.0 | 0.00 | 0.00 | 0.00 | 80 | 1015.0 |
| 20260904160046 | 88 | 97 | 0.0 | 10.0 | 0.00 | 0.00 | 0.00 | 74 | 1014.7 |
| 20260904154535 | 88 | 123 | 0.0 | 4.0 | 0.00 | 0.00 | 0.00 | 74 | 1014.2 |
| 20260904153127 | 88 | 22 | 0.0 | 1.0 | 0.00 | 0.00 | 0.00 | 72 | 1014.1 |